EHI
0 0 0 0 0 0 0 0 0 0 0 0 0 0 0 0 0 0 0 0 0 0 0 0 0 0 0 0 0 0 0 0 0 0 0 0 0 0 0 0 0 0 0 0
0 0 0 0 0 0 0 0 0 0 0 0 0 0 0 0 0 0 0 0 0 0 0 0 0 0 0 0 0 0 0 0 0 0 0 0 0 0 0 0 0 0 0 0
0 0 0 0 0 0 0 0 0 0 0 0 0 0 0 0 0 0 0 0 0 0 0 0 0 0 0 0 0 0 0 0 0 0 0 0 0 0 0 0 0 0 0 0
0 0 0 0 0 0 0 0 0 0 0 0 0 0 0 0 0 0 0 0 0 0 0 0 0 0 0 0 0 0 0 0 0 0 0 0 0 0 0 0 0 0 0 0
0 0 0 0 0 0 0 0 0 0 0 0 0 0 0 0 0 0 0 0 0 0 0 0 0 0 0 0 0 0 0 0 0 0 0 0 0 0 0 0 0 0 0 0
0 0 0 0 0 0 0 0 0 0 0 0 0 0 0 0 0 0 0 0 0 0 0 0 0 0 0 0 0 0 0 0 0 0 0 0 0 0 0 0 0 0 0 0
0 0 0 0 0 0 0 0 0 0 0 0 0 0 0 0 0 0 0 0 0 0 0 0 0 0 0 0 0 0 0 0 0 0 0 0 0 0 0 0 0 0 0 0
0 0 0 0 0 0 0 0 0 0 0 0 0 0 0 0 0 0 0 0 0 0 0 0 0 0 0 0 0 0 0 0 0 0 0 0 0 0 0 0 0 0 0 0
0 0 0 0 0 0 0 0 0 0 0 0 0 0 0 0 0 0 0 0 0 0 0 0 0 0 0 0 0 0 0 0 0 0 0 0 0 0 0 0 0 0 0 0
0 0 0 0 0 0 0 0 0 0 0 0 0 0 0 0 0 0 0 0 0 0 0 0 0 0 0 0 0 0 0 0 0 0 0 0 0 0 0 0 0 0 0 0
0 0 0 0 0 0 0 0 0 0 0 0 0 0 0 0 0 0 0 0 0 0 0 0 0 0 0 0 0 0 0 0 0 0 0 0 0 0 0 0 0 0 0 0
0 0 0 0 0 0 0 0 0 0 0 0 0 0 0 0 0 0 0 0 0 0 0 0 0 0 0 0 0 0 0 0 0 0 0 0 0 0 0 0 0 0 0 0
0 0 0 0 0 0 0 0 0 0 0 0 0 0 0 0 0 0 0 0 0 0 0 0 0 0 0 0 0 0 0 0 0 0 0 0 0 0 0 0 0 0 0 0
0 0 0 0 0 0 0 0 0 0 0 0 0 0 0 0 0 0 0 0 0 0 0 0 0 0 0 0 0 0 0 0 0 0 0 0 0 0 0 0 0 0 0 0
0 0 0 0 0 0 0 0 0 0 0 0 0 0 0 0 0 0 0 0 0 0 0 0 0 0 0 0 0 0 0 0 0 0 0 0 0 0 0 0 0 0 0 0
0 0 0 0 0 0 0 0 0 0 0 0 0 0 0 0 0 0 0 0 0 0 0 0 0 0 0 0 0 0 0 0 0 0 0 0 0 0 0 0 0 0 0 0
0 0 0 0 0 0 0 0 0 0 0 0 0 0 0 0 0 0 0 0 0 0 0 0 0 0 0 0 0 0 0 0 0 0 0 0 0 0 0 0 0 0 0 0
0 0 0 0 0 0 0 0 0 0 0 0 0 0 0 0 0 0 0 0 0 0 0 0 0 0 0 0 0 0 0 0 0 0 0 0 0 0 0 0 0 0 0 0
0 0 0 0 0 0 0 0 0 0 0 0 0 0 0 0 0 0 0 0 0 0 0 0 0 0 0 0 0 0 0 0 0 0 0 0 0 0 0 0 0 0 0 0
0 0 0 0 0 0 0 0 0 0 0 0 0 0 0 0 0 0 0 0 0 0 0 0 0 0 0 0 0 0 0 0 0 0 0 0 0 0 0 0 0 0 0 0
0 0 0 0 0 0 0 0 0 0 0 0 0 0 0 0 0 0 0 0 0 0 0 0 0 0 0 0 0 0 0 0 0 0 0 0 0 0 0 0 0 0 0 0
0 0 0 0 0 0 0 0 0 0 0 0 0 0 0 0 0 0 0 0 0 0 0 0 0 0 0 0 0 0 0 0 0 0 0 0 0 0 0 0 0 0 0 0
0 0 0 0 0 0 0 0 0 0 0 0 0 0 0 0 0 0 0 0 0 0 0 0 0 0 0 0 0 0 0 0 0 0 0 0 0 0 0 0 0 0 0 0
0 0 0 0 0 0 0 0 0 0 0 0 0 0 0 0 0 0 0 0 0 0 0 0 0 0 0 0 0 0 0 0 0 0 0 0 0 0 0 0 0 0 0 0
0 0 0 0 0 0 0 0 0 0 0 0 0 0 0 0 0 0 0 0 0 0 0 0 0 0 0 0 0 0 0 0 0 0 0 0 0 0 0 0 0 0 0 0
0 0 0 0 0 0 0 0 0 0 0 0 0 0 0 0 0 0 0 0 0 0 0 0 0 0 0 0 0 0 0 0 0 0 0 0 0 0 0 0 0 0 0 0
Wind_Speed
8 7 9 11 13 10 6 7 8 4 3 5 8 9 8 6 6 7 7 7 7 8 8 8 7 7 7 7 7 6 5 4 4 2 2 2 1 1 0 1 1 1 1 0
6 11 12 10 11 10 9 8 6 1 2 3 5 9 8 8 9 8 8 7 7 7 8 8 8 7 7 7 7 7 6 5 4 3 2 2 2 1 1 1 1 1 1 1
10 5 8 10 9 9 10 8 6 3 2 4 4 8 10 10 9 8 8 6 7 8 9 9 9 8 7 7 7 7 6 5 4 4 2 1 1 0 1 1 1 2 2 2
8 6 6 8 9 8 8 6 5 3 2 4 5 6 6 7 9 10 8 7 7 6 7 9 9 9 8 7 7 7 7 6 4 4 3 3 2 2 2 2 2 2 2 2
4 4 6 8 8 7 2 1 2 3 4 4 5 5 6 6 7 8 8 7 6 6 7 8 9 9 8 7 6 6 6 6 5 4 4 3 2 2 1 1 2 2 2 3
3 2 3 4 3 4 2 1 1 2 2 6 9 7 6 5 8 7 7 7 6 6 5 6 7 8 7 7 6 6 6 5 5 5 4 4 3 3 2 2 2 2 2 2
3 4 2 1 2 2 4 4 2 2 4 7 6 7 6 4 4 6 7 6 5 6 5 6 7 8 8 8 7 6 6 5 5 5 4 4 4 4 3 3 2 2 2 2
3 4 5 4 4 4 6 5 5 5 5 4 5 7 4 3 3 4 4 5 5 5 4 5 6 7 8 8 7 6 6 5 5 5 4 4 3 3 3 3 3 3 3 3
2 1 2 2 1 3 5 5 2 2 2 2 5 3 2 3 3 4 4 4 4 4 4 4 5 6 7 7 7 7 6 5 5 5 4 4 4 3 3 3 3 3 2 2
1 1 2 1 1 3 3 2 2 3 3 4 5 5 4 5 4 3 3 4 4 3 3 4 4 4 5 6 5 5 4 4 4 4 4 3 3 3 3 2 3 2 2 2
1 1 1 2 5 5 3 2 3 3 3 3 3 2 1 4 5 4 3 3 4 4 3 3 3 4 4 4 4 4 4 3 3 3 3 3 2 2 2 2 3 2 2 2
1 1 2 3 2 4 3 4 4 3 4 4 2 2 2 4 4 4 4 4 4 4 3 3 3 3 3 4 4 4 3 3 3 2 2 2 2 2 2 2 2 2 2 2
0 2 1 1 1 1 1 3 3 2 1 3 3 3 0 4 4 4 4 4 4 4 4 3 2 2 2 3 3 3 3 2 2 2 2 2 1 2 2 2 2 2 2 3
1 2 4 5 4 3 4 5 5 4 4 4 5 4 2 1 2 2 3 3 4 4 3 3 2 1 1 2 2 2 1 1 1 1 2 1 2 2 2 2 2 2 3 3
0 2 3 5 4 4 5 7 8 9 7 6 5 5 4 1 1 1 2 3 3 3 3 2 2 1 1 1 1 1 1 1 1 1 1 1 1 1 1 2 2 2 3 3
0 2 2 5 5 5 7 9 10 11 11 10 8 7 2 1 1 1 1 2 2 2 2 2 1 1 1 1 1 1 0 0 1 1 1 0 0 1 1 2 2 2 3 3
2 2 2 3 3 3 7 9 11 9 9 9 9 6 1 1 1 0 1 1 1 1 1 1 1 1 1 1 1 1 1 1 1 1 1 1 0 1 1 2 2 2 3 2
3 2 1 2 1 6 4 0 3 4 5 4 2 1 1 0 2 1 2 2 2 1 1 1 1 1 2 1 1 1 2 2 1 1 1 1 1 1 2 2 2 3 2 2
4 3 2 2 4 5 2 1 1 3 4 2 2 1 2 3 2 2 4 4 3 2 2 1 1 1 1 1 1 2 2 1 1 1 1 1 1 1 2 2 3 3 2 3
2 1 2 2 3 4 1 1 1 1 2 1 0 1 1 2 0 1 3 4 3 3 3 3 2 2 2 2 2 2 1 1 2 1 1 1 1 1 2 2 3 3 2 3
2 2 3 3 3 2 2 2 3 2 3 1 1 1 1 0 1 0 2 3 2 2 3 3 3 2 2 2 2 2 2 2 2 2 2 2 2 2 2 2 2 2 3 3
4 3 3 2 3 3 2 2 1 1 2 2 2 1 1 2 2 2 2 2 3 3 3 3 3 3 3 3 3 2 2 2 2 2 2 2 2 2 2 2 3 3 2 3
2 2 2 3 2 1 1 1 1 2 2 2 2 1 1 2 2 2 2 3 3 3 3 3 3 3 3 3 3 2 2 2 2 2 2 2 2 2 2 2 2 3 2 2
1 1 1 1 1 0 1 3 4 4 3 3 2 2 2 2 2 2 2 3 3 3 3 3 3 3 3 4 4 3 2 2 2 2 2 2 2 2 3 2 2 2 2 2
1 1 1 2 1 1 2 3 3 4 4 4 4 3 2 3 3 2 2 2 3 3 3 3 3 3 3 3 4 3 3 3 3 2 2 2 2 2 2 3 2 2 2 2
1 1 1 2 1 1 2 2 3 3 3 3 3 4 4 3 2 2 2 2 3 3 3 3 3 3 3 4 4 4 4 3 3 2 3 2 2 2 2 2 3 4 4 5
Wind_Direction
193 205 210 208 214 234 249 242 242 231 178 195 224 242 239 216 213 219 212 202 193 187 177 167 160 153 149 146 147 150 150 153 145 145 151 150 164 174 157 187 189 209 225 234
200 223 223 221 224 240 253 256 259 255 169 206 245 253 246 225 216 211 211 204 193 184 173 164 157 153 155 154 153 155 159 159 154 160 164 165 169 185 187 207 219 226 232 241
215 222 215 220 217 227 240 239 243 239 257 240 269 268 235 227 218 212 211 206 194 186 176 166 162 161 159 159 160 163 161 159 158 159 148 145 129 170 241 227 218 225 225 229
233 234 223 221 221 219 237 241 243 233 231 243 208 266 240 210 207 206 205 203 198 190 174 168 167 166 165 164 160 160 160 159 161 155 156 167 184 206 223 219 226 236 230 235
226 212 216 221 223 221 233 256 242 239 241 270 232 246 259 201 210 200 195 196 193 185 175 172 170 166 162 156 157 160 158 160 161 162 169 179 195 216 221 221 234 242 237 231
253 262 230 226 231 209 168 136 216 253 243 254 224 220 257 210 209 197 187 185 181 175 171 169 163 156 155 152 155 161 161 165 167 170 178 183 193 207 216 231 234 244 246 238
223 217 195 162 164 179 185 149 154 192 216 240 201 208 240 216 189 181 179 178 172 166 167 167 164 162 159 159 162 167 165 171 174 177 186 191 197 200 208 220 227 242 254 254
182 205 187 183 183 183 206 194 184 194 209 227 199 217 231 162 131 135 138 141 141 142 155 164 164 161 160 162 166 172 174 177 178 182 193 197 199 201 207 215 225 237 241 246
195 234 186 220 216 180 190 219 257 283 275 259 229 218 168 123 109 111 115 113 124 131 139 151 154 157 158 164 173 177 178 179 181 186 191 198 202 207 213 217 224 238 246 255
1 256 237 279 270 258 242 210 170 189 205 234 227 214 201 172 166 142 135 133 131 121 128 137 147 153 157 163 166 168 178 182 184 187 194 206 209 209 211 213 225 240 247 252
356 130 191 228 216 209 198 205 218 216 238 223 232 235 72 151 154 148 129 123 127 123 123 132 135 138 141 144 155 169 179 180 184 188 194 202 202 193 190 211 226 231 246 251
263 148 213 244 285 298 233 204 184 197 237 237 252 255 31 89 107 106 105 99 102 103 97 101 109 120 130 143 159 167 176 184 190 187 197 198 189 183 203 231 230 231 251 257
213 152 156 253 277 309 283 251 222 224 248 244 231 229 55 54 50 70 94 95 97 97 89 81 95 118 135 150 160 165 174 184 187 179 193 191 190 194 222 235 234 239 252 264
308 210 212 220 242 216 234 238 227 209 217 241 237 236 267 1 35 38 59 83 97 102 102 95 82 74 96 113 131 146 161 158 163 165 177 194 220 221 231 240 245 245 245 254
28 235 255 274 273 249 247 233 225 224 228 228 243 257 260 227 153 96 71 75 76 75 88 91 87 71 67 73 80 97 109 113 129 136 166 222 245 247 255 250 247 256 258 260
154 235 276 274 263 248 250 238 231 236 237 242 254 268 277 47 74 79 82 72 69 59 60 65 66 65 65 87 94 67 42 74 113 135 183 206 235 256 260 266 266 263 266 267
198 197 226 258 254 280 253 228 221 226 226 225 238 243 196 2 314 148 111 97 68 37 35 69 46 18 19 53 94 79 37 49 69 84 70 40 360 297 298 296 292 275 268 266
179 212 230 226 195 230 238 240 192 214 228 224 239 252 157 151 307 49 71 72 55 27 27 39 36 14 8 33 75 84 73 61 58 55 40 24 7 337 333 331 309 291 283 278
197 186 216 202 222 251 268 331 193 203 241 226 215 212 55 56 49 72 56 47 39 25 21 32 42 36 20 36 74 81 76 72 63 42 27 17 6 345 334 321 312 305 299 297
197 201 206 212 234 236 247 342 344 119 245 312 141 162 99 62 135 245 18 29 29 20 21 23 31 37 32 37 73 83 71 60 50 30 14 15 10 353 326 314 313 315 309 297
191 212 212 225 240 255 10 9 68 143 243 356 45 93 118 219 229 255 15 29 35 21 22 27 34 31 21 33 66 80 63 47 34 24 20 20 15 356 339 338 334 333 329 323
191 186 200 204 229 247 23 62 136 246 342 23 37 31 42 46 53 50 51 43 40 34 29 33 42 32 22 32 55 55 37 26 39 36 24 17 7 357 359 358 343 342 338 333
201 194 197 200 217 359 75 75 16 17 2 1 357 15 73 76 61 44 46 43 45 36 30 35 45 37 27 27 45 49 18 20 33 40 26 12 7 5 6 5 353 348 346 337
252 245 223 253 239 50 29 32 20 12 3 10 37 46 69 95 75 56 39 39 38 38 35 42 42 36 25 26 34 35 22 23 35 36 19 9 10 7 10 9 0 351 344 341
260 238 237 250 300 19 38 20 13 8 18 30 34 42 67 91 90 73 48 41 41 35 26 38 41 31 20 24 32 23 18 28 33 24 12 5 9 13 8 7 6 350 340 330
9 349 255 248 305 305 312 2 22 28 25 35 44 45 49 65 76 67 55 46 46 36 32 35 34 27 17 22 25 15 11 23 26 17 9 6 7 8 5 359 355 360 349 346